FENGYUN 1C DEB, 36180

Orbit data source: Space-Track

FENGYUN 1C DEB, 36180 is space debris in SSO originally from a launch on Mon, 10 May 1999 UTC launched from the Taiyaun Space Center, China (TSC). Fengyun 1C debris stems from the Chinese weather satellite Fengyun-1C, which was intentionally destroyed by a Chinese anti-satellite missile in 2007. This event dramatically increased the amount of space debris, with thousands of trackable fragments posing hazards to satellites and human spaceflight. The Fengyun 1C debris cloud has become a focal point in discussions about space sustainability and the need for international regulations to prevent the creation of new debris.

Loading next visibility...
Identifier
36180, 1999-025DTD
Orbit
SSO
Country
Flag of CNCN / PRC
Related business
Manufacturer
Unknown
Mission
Spacecraft
Bus & Motor
Unknown
Mass
Unknown
Launch date (UTC)
1999-05-10 (27 years ago)
Launch vehicle
Unknown
Launch site
Taiyaun Space Center, China (TSC)
Object type
Payload
Rocket body
Debris
Shape & HBR
Unknown shape, 0.1 m
Radar Cross Section
Small (<0.1 m²)

Expand to show TLE details & history
Last TLE update: 1 week ago

TLE from 1 week ago
0 FENGYUN 1C DEB
1 36180U 99025DTD 26116.42684161  .00000925  00000-0  35750-3 0  9990
2 36180  98.4342 179.2426 0209422 359.2406   0.8425 14.21148651724969
Epoch: 2026-04-26T10:14Z
TLE epoch observation values (Epoch: 2026-04-26T10:14:39.115Z)
Latitude
0.00003°
Longitude
171.1486°
Altitude
673.608 km
Speed
7.598 km/s
True Right ascension
11h 56m 58s
True Declination
0° 00' 00"
Sunlit
Object was in full shadow at epoch
Visualization orbit readout
Latitude
Unknown
Longitude
Unknown
Altitude
Unknown
Speed
Unknown
Apparent Right ascension
Unknown
Apparent Declination
Unknown
Sunlit
N/A
Visualization observer readout
Local Sidereal Time
01:39:06
Azimuth
Unknown
Elevation
Unknown
Doppler factor
Unknown
Orbital elements
Apogee altitude
969.329 km
Perigee altitude
667.897 km
Semi-major axis
7,196.75 km
Eccentricity
0.02094
Inclination
98.4342°
RAAN
179.2426°
Arg. of periapsis
359.2406°
True anomaly
0.87873°
Mean anomaly
0.8425°
Eccentric anomaly
0.86052°
Mean motion
3.55499 °/min
Orbital period
101.27 mins
BSTAR
0.0003575
Loading maneuver chart data...
Computing Atmospheric mass density...

Documentation

Showing up to 5 results
|